| time (UTC) | temp C | wind direction | speed KPH | gust KPH | rain 1hr cm | rain 24hr cm | rain mn cm | humidity % | barometer mb |
| 20260508215856 | -3 | 110 | 0.0 | 0.0 | 0.00 | 0.00 | 0.00 | 92 | 1022.9 |
| 20260508214337 | -3 | 110 | 0.0 | 0.0 | 0.00 | 0.00 | 0.00 | 92 | 1022.7 |
| 20260508211330 | -2 | 110 | 0.0 | 0.0 | 0.00 | 0.00 | 0.00 | 92 | 1022.5 |
| 20260508202848 | 0 | 110 | 0.0 | 0.0 | 0.00 | 0.00 | 0.00 | 91 | 1021.9 |
| 20260508195835 | 0 | 110 | 0.0 | 0.0 | 0.00 | 0.00 | 0.00 | 92 | 1021.6 |
| 20260508192844 | 1 | 110 | 0.0 | 0.0 | 0.00 | 0.00 | 0.00 | 92 | 1021.2 |
| 20260508191337 | 2 | 110 | 0.0 | 0.0 | 0.00 | 0.00 | 0.00 | 92 | 1020.9 |
| 20260508184347 | 3 | 110 | 0.0 | 0.0 | 0.00 | 0.00 | 0.00 | 92 | 1020.4 |
| 20260508182835 | 4 | 110 | 0.0 | 0.0 | 0.00 | 0.00 | 0.00 | 92 | 1020.3 |
| 20260508181333 | 5 | 110 | 0.0 | 1.6 | 0.00 | 0.00 | 0.00 | 91 | 1020.0 |
| 20260508174339 | 6 | 110 | 0.0 | 3.2 | 0.00 | 0.00 | 0.00 | 88 | 1019.9 |
| 20260508172830 | 6 | 110 | 0.0 | 3.2 | 0.00 | 0.00 | 0.00 | 91 | 1019.6 |
| 20260508165842 | 6 | 109 | 3.2 | 8.0 | 0.00 | 0.00 | 0.00 | 93 | 1019.7 |
| 20260508164335 | 7 | 125 | 3.2 | 8.0 | 0.00 | 0.00 | 0.00 | 93 | 1019.7 |
| 20260508161345 | 7 | 123 | 3.2 | 8.0 | 0.00 | 0.00 | 0.00 | 92 | 1019.3 |
| 20260508155838 | 7 | 109 | 3.2 | 11.3 | 0.00 | 0.00 | 0.00 | 92 | 1019.3 |
| 20260508154335 | 7 | 91 | 3.2 | 9.7 | 0.00 | 0.00 | 0.00 | 91 | 1019.2 |
| 20260508151347 | 7 | 92 | 4.8 | 9.7 | 0.00 | 0.00 | 0.00 | 90 | 1019.2 |
| 20260508145840 | 8 | 57 | 4.8 | 12.9 | 0.00 | 0.00 | 0.00 | 91 | 1019.4 |
| 20260508142843 | 8 | 292 | 1.6 | 9.7 | 0.00 | 0.05 | 0.00 | 91 | 1019.6 |
| 20260508141336 | 8 | 13 | 1.6 | 12.9 | 0.00 | 0.05 | 0.00 | 90 | 1019.6 |
| 20260508135834 | 8 | 93 | 4.8 | 11.3 | 0.00 | 0.05 | 0.00 | 90 | 1019.7 |
| 20260508132840 | 8 | 87 | 1.6 | 9.7 | 0.00 | 0.15 | 0.00 | 88 | 1020.1 |
| 20260508131336 | 8 | 239 | 3.2 | 9.7 | 0.00 | 0.15 | 0.00 | 88 | 1020.1 |
| 20260508124345 | 7 | 67 | 4.8 | 11.3 | 0.00 | 0.28 | 0.00 | 93 | 1020.2 |
| 20260508122842 | 7 | 39 | 1.6 | 11.3 | 0.00 | 0.28 | 0.00 | 92 | 1020.2 |
| 20260508121335 | 7 | 101 | 4.8 | 8.0 | 0.00 | 0.28 | 0.00 | 92 | 1020.4 |
| 20260508114344 | 7 | 115 | 3.2 | 8.0 | 0.00 | 0.46 | 0.00 | 91 | 1020.3 |
| 20260508112843 | 7 | 355 | 3.2 | 11.3 | 0.00 | 0.46 | 0.00 | 92 | 1020.3 |
| 20260508105848 | 6 | 82 | 4.8 | 12.9 | 0.00 | 0.46 | 0.00 | 93 | 1020.3 |
| 20260508104344 | 7 | 79 | 1.6 | 9.7 | 0.00 | 0.46 | 0.00 | 92 | 1020.3 |
| 20260508102832 | 7 | 182 | 3.2 | 12.9 | 0.00 | 0.46 | 0.00 | 92 | 1020.2 |
| 20260508095840 | 7 | 290 | 0.0 | 6.4 | 0.00 | 0.46 | 0.00 | 91 | 1020.2 |
| 20260508094332 | 7 | 341 | 3.2 | 11.3 | 0.00 | 0.46 | 0.00 | 93 | 1020.3 |
| 20260508091343 | 6 | 51 | 1.6 | 6.4 | 0.00 | 0.46 | 0.00 | 93 | 1020.4 |
| 20260508085836 | 6 | 80 | 0.0 | 8.0 | 0.00 | 0.46 | 0.00 | 91 | 1020.4 |
| 20260508084332 | 6 | 182 | 1.6 | 8.0 | 0.00 | 0.48 | 0.00 | 91 | 1020.3 |
| 20260508081342 | 6 | 179 | 0.0 | 3.2 | 0.00 | 0.48 | 0.00 | 92 | 1020.2 |
| 20260508075838 | 6 | 208 | 1.6 | 8.0 | 0.00 | 0.48 | 0.00 | 93 | 1020.4 |
| 20260508072842 | 6 | 183 | 0.0 | 3.2 | 0.00 | 0.51 | 0.00 | 92 | 1020.1 |
| 20260508064348 | 6 | 191 | 1.6 | 6.4 | 0.00 | 0.53 | 0.00 | 90 | 1019.9 |
| 20260508062835 | 6 | 197 | 1.6 | 4.8 | 0.00 | 0.53 | 0.00 | 84 | 1019.8 |
| 20260508055844 | 5 | 140 | 0.0 | 8.0 | 0.00 | 0.53 | 0.00 | 89 | 1019.7 |
| 20260508054340 | 4 | 150 | 3.2 | 9.7 | 0.00 | 0.53 | 0.00 | 92 | 1019.6 |
| 20260508051346 | 2 | 221 | 1.6 | 8.0 | 0.00 | 0.53 | 0.00 | 93 | 1019.8 |
| 20260508045839 | 1 | 218 | 0.0 | 1.6 | 0.00 | 0.53 | 0.00 | 94 | 1019.8 |
| 20260508044334 | 1 | 218 | 0.0 | 0.0 | 0.00 | 0.53 | 0.00 | 94 | 1019.6 |
| 20260508041348 | 2 | 220 | 6.4 | 11.3 | 0.00 | 0.53 | 0.00 | 93 | 1019.7 |
| 20260508035841 | 0 | 211 | 8.0 | 9.7 | 0.00 | 0.53 | 0.00 | 94 | 1019.6 |
| 20260508032845 | 0 | 147 | 0.0 | 0.0 | 0.00 | 0.53 | 0.00 | 94 | 1019.7 |
| 20260508031338 | 0 | 147 | 0.0 | 0.0 | 0.00 | 0.53 | 0.00 | 93 | 1019.9 |
| 20260508022908 | 0 | 147 | 0.0 | 1.6 | 0.00 | 0.53 | 0.00 | 94 | 1020.3 |
| 20260508021401 | -1 | 147 | 0.0 | 0.0 | 0.00 | 0.53 | 0.00 | 94 | 1020.3 |
| 20260508015853 | -1 | 147 | 0.0 | 0.0 | 0.00 | 0.53 | 0.00 | 94 | 1020.3 |
| 20260508012911 | 0 | 147 | 0.0 | 0.0 | 0.00 | 0.53 | 0.00 | 94 | 1020.3 |
| 20260508011400 | 0 | 147 | 0.0 | 0.0 | 0.00 | 0.53 | 0.00 | 94 | 1020.1 |
| 20260508005854 | 0 | 147 | 0.0 | 0.0 | 0.00 | 0.53 | 0.00 | 94 | 1020.2 |
| 20260508002910 | 0 | 147 | 0.0 | 0.0 | 0.00 | 0.53 | 0.00 | 93 | 1020.0 |
| 20260508001359 | 0 | 147 | 0.0 | 0.0 | 0.00 | 0.53 | 0.00 | 94 | 1019.9 |
| 20260507234407 | 1 | 116 | 1.6 | 6.4 | 0.00 | 0.53 | 0.00 | 94 | 1019.9 |
| 20260507232501 | 1 | 116 | 0.0 | 3.2 | 0.00 | 0.53 | 0.00 | 94 | 1020.0 |
| 20260507225849 | 2 | 116 | 0.0 | 1.6 | 0.00 | 0.53 | 0.00 | 94 | 1020.2 |
| 20260507222905 | 3 | 117 | 0.0 | 8.0 | 0.00 | 0.56 | 0.00 | 94 | 1020.1 |